Weather History for Wichita, KS

Change the Weather History Date:

Friday, January 18, 2013

  Actual Average Record
Temperature  
Mean Temperature 44 °F 32 °F  
Max Temperature 60 °F 43 °F 65 °F (1951)
Min Temperature 28 °F 22 °F -12 °F (1930)
Degree Days  
Heating Degree Days 21 33  
Month to date heating degree days 552 594  
Since 1 July heating degree days 2116 2437  
Cooling Degree Days 0 0  
Month to date cooling degree days 0 0  
Year to date cooling degree days 0 0  
Moisture  
Dew Point 29 °F    
Average Humidity 63    
Maximum Humidity 92    
Minimum Humidity 33    
Precipitation  
Precipitation 0.00 in 0.03 in 0.87 in (1979)
Month to date precipitation 0.53 0.43  
Year to date precipitation 0.53 0.43  
Snow  
Snow 0.00 in 0.10 in 12.00 in (1962)
Month to date snowfall 0.7 1.9  
Since 1 July snowfall 3.2 7.5  
Snow Depth 0.00 in    
Sea Level Pressure  
Sea Level Pressure 30.24 in    
Wind  
Wind Speed 15 mph (South)    
Max Wind Speed 29 mph    
Max Gust Speed 39 mph    
Visibility 10 miles    
Events      
T = Trace of Precipitation, MM = Missing Value Source: NWS Daily Summary

Daily Weather History Graph

Daily Weather History Graph

Search for Another Location

Airport:

Trip Planner

Search our weather history database for the weather conditions in past years. The results will help you decide how hot, cold, wet, or windy it might be!

Date:

Astronomy

Jan. 18, 2013 Rise Set
Actual Time 7:42 AM CST 5:38 PM CST
Civil Twilight 7:13 AM CST 6:06 PM CST
Nautical Twilight 6:41 AM CST 6:39 PM CST
Astronomical Twilight 6:10 AM CST 7:10 PM CST
Moon 11:31 AM CST (1/18) 12:21 AM CST (1/18)
Length of Visible Light 10h 53m
Length of Day
9h 56m
Waxing Crescent, 47% of the Moon is Illuminated
Jan 18
Waxing Crescent
Jan 18
First Quarter
Jan 26
Full
Feb 3
Last Quarter
Feb 10
New

Hourly Weather History & Observations

Time (CST) Temp. Windchill Dew Point Humidity Pressure Visibility Wind Dir Wind Speed Gust Speed Precip Events Conditions
12:53 AM 30.0 °F 25.2 °F 25.0 °F 82% 30.44 in 10.0 mi South 4.6 mph - N/A   Clear
1:53 AM 28.9 °F 21.1 °F 25.0 °F 85% 30.43 in 10.0 mi South 8.1 mph - N/A   Clear
2:53 AM 28.9 °F 21.1 °F 25.0 °F 85% 30.41 in 10.0 mi South 8.1 mph - N/A   Clear
3:53 AM 28.9 °F 20.4 °F 26.1 °F 89% 30.39 in 10.0 mi South 9.2 mph - N/A   Clear
4:53 AM 30.0 °F 20.0 °F 26.1 °F 85% 30.37 in 10.0 mi South 12.7 mph - N/A   Clear
5:53 AM 30.9 °F 21.2 °F 27.0 °F 85% 30.35 in 10.0 mi South 12.7 mph - N/A   Clear
6:53 AM 30.0 °F 19.5 °F 26.1 °F 85% 30.34 in 10.0 mi South 13.8 mph - N/A   Clear
7:53 AM 30.0 °F 20.0 °F 26.1 °F 85% 30.34 in 10.0 mi South 12.7 mph - N/A   Clear
8:53 AM 34.0 °F 25.5 °F 28.9 °F 82% 30.35 in 10.0 mi South 11.5 mph - N/A   Clear
9:53 AM 41.0 °F 33.1 °F 30.9 °F 67% 30.35 in 10.0 mi South 15.0 mph - N/A   Clear
10:53 AM 46.9 °F - 30.9 °F 54% 30.32 in 10.0 mi SSW 19.6 mph - N/A   Clear
11:53 AM 51.1 °F - 30.9 °F 46% 30.27 in 10.0 mi SSW 26.5 mph 32.2 mph N/A   Clear
12:53 PM 55.0 °F - 30.9 °F 40% 30.21 in 10.0 mi South 20.7 mph 33.4 mph N/A   Clear
1:53 PM 57.0 °F - 30.9 °F 37% 30.17 in 10.0 mi SSW 26.5 mph 36.8 mph N/A   Clear
2:53 PM 59.0 °F - 30.0 °F 33% 30.15 in 10.0 mi SSW 23.0 mph 34.5 mph N/A   Clear
3:53 PM 59.0 °F - 30.0 °F 33% 30.13 in 10.0 mi SSW 24.2 mph 33.4 mph N/A   Clear
4:53 PM 57.0 °F - 30.9 °F 37% 30.12 in 10.0 mi SSW 17.3 mph 27.6 mph N/A   Clear
5:53 PM 53.1 °F - 30.9 °F 43% 30.12 in 10.0 mi South 13.8 mph - N/A   Clear
6:53 PM 50.0 °F - 30.9 °F 48% 30.14 in 10.0 mi South 13.8 mph - N/A   Clear
7:53 PM 46.0 °F 40.2 °F 30.9 °F 56% 30.14 in 10.0 mi South 12.7 mph - N/A   Clear
8:53 PM 46.0 °F 39.6 °F 32.0 °F 58% 30.12 in 10.0 mi South 15.0 mph - N/A   Clear
9:53 PM 46.9 °F - 30.9 °F 54% 30.09 in 10.0 mi South 15.0 mph 23.0 mph N/A   Clear
10:53 PM 46.9 °F - 30.9 °F 54% 30.08 in 10.0 mi SSW 18.4 mph 25.3 mph N/A   Clear
11:53 PM 44.1 °F 37.4 °F 30.9 °F 60% 30.07 in 10.0 mi SSW 13.8 mph - N/A   Clear